Regional Weather Roundup
Issued by NWS

Home | Current Version | Previous Version | Text Only | Print | Product List | Glossary On
Versions: 1 2 3 4 5 6 7 8 9 10 11 12 13 14 15 16 17 18 19 20 21 22 23 24 25 26 27 28 29 30 31 32 33 34 35 36 37 38 39 40 41 42 43 44 45 46 47 48 49 50
984
ASUS42 KTBW 230418
RWRFL
FLORIDA REGIONAL WEATHER ROUNDUP
NATIONAL WEATHER SERVICE TAMPA BAY RUSKIN FL
1100 PM EST WED NOV 22 2017

NOTE: "FAIR" INDICATES FEW OR NO CLOUDS BELOW 12,000 FEET WITH NO
SIGNIFICANT WEATHER AND/OR OBSTRUCTIONS TO VISIBILITY.

FLZ001>010-012>015-112-114-115-230500-
PANHANDLE FLORIDA

CITY           SKY/WX    TMP DP  RH WIND       PRES   REMARKS
PENSACOLA      MOCLDY    55  42  61 N12       30.07S
PENSACOLA NAS  MOCLDY    56  42  59 N10       30.07S
MILTON NAS     MOCLDY    54  43  66 MISG      30.08S
CRESTVIEW      CLOUDY    55  41  59 N5        30.08S
DUKE FIELD     CLOUDY    56  41  58 N6        30.06S
VALPARAISO     MOCLDY    58  41  52 N12       30.05S
MARY ESTHER    MOCLDY    57  42  57 NE10      30.04S
PANAMA CITY    LGT RAIN  57  49  74 N7        30.04S
TYNDALL AFB    LGT RAIN  59  50  73 N8        30.03F
APALACHICOLA   LGT RAIN  63  63 100 NE9       30.01S

STATION/POSITION SKY/WX   TEMP    WIND        PRES    WAVE   SWELL
                          AIR SEA DIR/SP/G            HT/PER HT/PER
                          (F)     (DEG/KT/KT) (MB)    (FT/S) (FT/S)
29.2N   88.2W              66 78   20/ 21/ 27 1017.3
28.8N   86.0W              70 76   60/ 19/ 23 1014.3F   4/ 5
PANAMA CITY BEAC           58 70   20/  8/ 12 1017.5S
TOWER C                    65      50/ 18/ 20 1016.4S
28.5N   84.5W              70 75   30/ 19/ 23   N/A     3/ 4

$$
FLZ011-016>038-118-127-128-134-139-239-230500-
NORTH FLORIDA

CITY           SKY/WX    TMP DP  RH WIND       PRES   REMARKS
MARIANNA       CLOUDY    61  42  49 NE7       30.05S
TALLAHASSEE    LGT RAIN  63  62  97 N3        30.03R
PERRY          DRIZZLE   65  62  90 CALM      30.03R
LIVE OAK       MOCLDY    64  64 100 CALM      30.04R
CROSS CITY     CLOUDY    63  60  90 NE6       30.05S
LAKE CITY      CLOUDY    61  55  82 E3        30.03R
GAINESVILLE    CLOUDY    62  59  90 NE6       30.04S
WILLISTON      CLEAR     66  63  88 CALM      30.00S
PALATKA        FAIR      64  64 100 NE6       30.02S
MAYPORT NAS    MOCLDY    65  62  90 NE10      30.03S
JACKSONVILLE   CLOUDY    61  60  97 NE3       30.03S
JAX NAS        CLOUDY    65  61  87 N8        30.03S
JAX CECIL        N/A     61  61 100 MISG      30.02F
ST AUGUSTINE   MOCLDY    66  63  90 NE9       30.02F
PALM COAST     FAIR      67  64  89 NE8       30.01R

STATION/POSITION SKY/WX   TEMP    WIND        PRES    WAVE   SWELL
                          AIR SEA DIR/SP/G            HT/PER HT/PER
                          (F)     (DEG/KT/KT) (MB)    (FT/S) (FT/S)
SHELL POINT      NOT AVBL
KEATON BEACH               64      40/  2/  3 1016.0R
CEDAR KEY                  66      50/  8/  9 1015.5R
FERNANDINA                 65 66   CALM  /  6 1017.8S
30.7N   81.3W                 67                N/A     3/ 9
MAYPORT                    66 67   50/ 10/ 12 1017.2S
31.4N   80.9W              65 68   60/ 10/ 10 1017.2R   3/ 9   3/ 9
ST AUGUSTINE               68 69   30/ 15/ 16 1016.3F

$$
FLZ040-043>046-052-053-057-058-063-144-230500-
INTERIOR CENTRAL FLORIDA

CITY           SKY/WX    TMP DP  RH WIND       PRES   REMARKS
OCALA          PTCLDY    65  61  87 NE5       30.01S
THE VILLAGES     N/A     66  64  94 CALM      29.90F FOG
LEESBURG       PTCLDY    67  64  90 NE8       30.00S
SANFORD        CLOUDY    67  64  90 N7        29.99S
ORLANDO EXEC   CLOUDY    69  66  90 NE7       29.99S
ORLANDO INTL   CLOUDY    68  66  93 NE8       29.99S
KISSIMMEE      LGT RAIN  69  65  86 NE6       30.00R
WINTER HAVEN   CLOUDY    68  64  87 E7        29.99S
LAKELAND       LGT RAIN  68  63  83 E8        29.99R
BARTOW         LGT RAIN  68  66  94 NE7       29.99R
SEBRING        MOCLDY    70  65  83 NE3       29.97S
OKEECHOBEE     CLOUDY    68  66  94 NE3       29.96F

$$
FLZ041-047-054-059-064-141-147-230500-
EAST CENTRAL FLORIDA

CITY           SKY/WX    TMP DP  RH WIND       PRES   REMARKS
DAYTONA BEACH  CLOUDY    71  67  87 NE7       30.00R
DELAND         PTCLDY    64  63  94 N5        29.99F
JFK SPACE CTR  CLOUDY    71  69  95 E6        29.97S
CAPE CANAVERAL CLOUDY    73  65  76 E9        29.96S
PATRICK AFB    PTCLDY    73  69  90 E8        29.97S
MELBOURNE      MOCLDY    74  68  81 E9        29.97S
VERO BEACH     HVY RAIN  71  70  96 CALM      29.97S FOG
FT PIERCE      CLOUDY    73  68  84 E6        29.96S
STUART         PTCLDY    77  70  78 E8        29.97S

STATION/POSITION SKY/WX   TEMP    WIND        PRES    WAVE   SWELL
                          AIR SEA DIR/SP/G            HT/PER HT/PER
                          (F)     (DEG/KT/KT) (MB)    (FT/S) (FT/S)
28.5N   80.2W              76 78   70/ 16/ 19 1015.0R   6/ 9   3/ 9
TRIDENT PIER                       50/  7/ 10   N/A
27.5N   80.2W                 78                N/A     4/ 9   2/11

$$
FLZ050-056-061-142-242-148-248-149-249-151-251-155-255-
160-260-230500-
WEST CENTRAL FLORIDA

CITY           SKY/WX    TMP DP  RH WIND       PRES   REMARKS
CRYSTAL RIVER  FAIR      66  61  82 E9        29.98F
INVERNESS      FAIR      64  63  94 NE5       30.00S
BROOKSVILLE    RAIN      67  63  87 E9        29.99R FOG
CLEARWATER AIR MOCLDY    66  66 100 E5        29.96S
ST PETE CLEARW CLOUDY    70  66  87 E7        29.97S
TAMPA INTL     CLOUDY    71  65  81 VRB6      29.97F
TAMPA EXEC     LGT RAIN  68  64  88 NE3       29.98S
PLANT CITY     RAIN      70  64  83 E3        30.00S
PETER O KNIGHT   N/A    N/A N/A N/A E8        29.97S
ST PETERSBURG  CLOUDY    71  66  84 SE12      29.96R
SARASOTA       LGT RAIN  70  67  90 E12       29.94S
VENICE         FAIR      70  68  94 E9        29.95F

STATION/POSITION SKY/WX   TEMP    WIND        PRES    WAVE   SWELL
                          AIR SEA DIR/SP/G            HT/PER HT/PER
                          (F)     (DEG/KT/KT) (MB)    (FT/S) (FT/S)
27.3N   84.2W                 76                N/A     2/ 3
CLEARWATER BEACH           69 70   80/  5/  9 1014.7F
MIDDLE TAMPA BAY           70     110/ 10/ 12 1014.5F
VENICE                     71 72   70/  8/ 10 1014.1F

$$
FLZ066-069-070-075>078-162-262-165-265-230500-
SOUTHWEST FLORIDA AND KEYS

CITY           SKY/WX    TMP DP  RH WIND       PRES   REMARKS
PUNTA GORDA    MOCLDY    71  67  87 E6        29.98R
FT MYERS       PTCLDY    72  68  87 NE5       29.94F
SOUTHWEST INTL PTCLDY    71  68  90 E5        29.95F
NAPLES         CLOUDY    72  67  84 CALM      29.95R
MARCO ISLAND   CLOUDY    70  67  90 E5        29.95F
IMMOKALEE      MOCLDY    68  66  94 NE5       29.96S
MARATHON       PTCLDY    77  68  73 E5        29.94F
KEY WEST NAS   CLEAR     76  76 100 E8        29.94F
KEY WEST INTL  CLEAR     77  73  87 E5        29.94F

STATION/POSITION SKY/WX   TEMP    WIND        PRES    WAVE   SWELL
                          AIR SEA DIR/SP/G            HT/PER HT/PER
                          (F)     (DEG/KT/KT) (MB)    (FT/S) (FT/S)
NAPLES                        77   70/  2/  4 1013.7F
DRY TORTUGAS               78     140/ 11/ 12 1013.4F
SAND KEY                   78                 1014.3F
MOLASSES REEF              78 80   70/  5/  7 1014.5S

$$
FLZ067-068-071>074-168-172>174-230500-
SOUTHEAST FLORIDA

CITY           SKY/WX    TMP DP  RH WIND       PRES   REMARKS
W PALM BEACH   PTCLDY    75  67  76 E12       29.96S
BOCA RATON     PTCLDY    77  70  78 SE12      29.95F
FT LAUDER-EXEC LGT RAIN  75  73  93 E13       29.94F
FT LAUDERDALE  PTCLDY    77  71  82 SE12      29.94S
POMPANO BEACH  CLOUDY    78  70  76 E12       29.94F
PEMBROKE PINES PTCLDY    73  68  84 E3        29.96F
OPA LOCKA      PTCLDY    74  72  93 CALM      29.95S
MIAMI          PTCLDY    75  69  81 SE7       29.95S
WEST KENDALL   CLEAR     72  68  87 SE5       29.95F
HOMESTEAD      CLEAR     73  73 100 E3        29.95S

STATION/POSITION SKY/WX   TEMP    WIND        PRES    WAVE   SWELL
                          AIR SEA DIR/SP/G            HT/PER HT/PER
                          (F)     (DEG/KT/KT) (MB)    (FT/S) (FT/S)
PORT EVERGLADES            78      90/  8/ 12 1014.1F
VIRGINIA KEY               78 78   90/  6/  8 1014.0S
LAKE WORTH                 77 80   90/ 12/ 14 1015.5R
FOWEY ROCKS                77 79  110/ 15/ 15 1014.7F
SETTLEMENT POINT           75     100/  9/ 11 1014.9F

$$





USA.gov is the U.S. government's official web portal to all federal, state and local government web resources and services.